TRA64R EHBK-LEMG

Flight info

Callsign TRA64R
Flight time 2h 46m
Altitude 35000
Route LNO DCT SOPOK DCT TOLVU DCT GIMER DCT RESMI DCT ARKIP DCT ARNAV DCT LMG DCT OSMOB DCT BTZ DCT PPN DCT BAN N857 MONTO N864 VULPE
Aircraft A321/M-SDE3FGHIRWY/LB1

Departure

Time 2026-05-04 10:02
Airport Maastricht Aachen Airport (EHBK)

Arrival

Time 2026-05-04 12:48
Airport Málaga-Costa del Sol Airport (LEMG)
Time Latitude Longitude Altitude Speed Heading
2026-05-04 09:34 50.91417 5.76853 384 ft 0 kts 348°
2026-05-04 09:54 50.91406 5.76857 384 ft 4 kts 348°
2026-05-04 09:54 50.91379 5.76867 384 ft 4 kts 347°
2026-05-04 09:55 50.91354 5.76873 384 ft 4 kts 11°
2026-05-04 09:55 50.91330 5.76856 384 ft 4 kts 36°
2026-05-04 09:55 50.91318 5.76842 384 ft 0 kts 32°
2026-05-04 09:57 50.91336 5.76859 384 ft 6 kts 32°
2026-05-04 09:57 50.91382 5.76906 384 ft 9 kts 32°
2026-05-04 09:57 50.91438 5.76963 384 ft 10 kts 33°
2026-05-04 09:58 50.91502 5.77028 384 ft 12 kts 33°
2026-05-04 09:58 50.91574 5.77102 384 ft 13 kts 33°
2026-05-04 09:58 50.91654 5.77185 384 ft 15 kts 33°
2026-05-04 10:00 50.91990 5.77834 384 ft 22 kts 213°
2026-05-04 10:00 50.91772 5.77614 382 ft 73 kts 212°
2026-05-04 10:02 50.84819 5.77868 3299 ft 256 kts 110°
2026-05-04 10:04 50.78104 5.93884 8385 ft 277 kts 182°
2026-05-04 10:04 50.76232 5.93279 9075 ft 277 kts 205°
2026-05-04 10:04 50.74598 5.91651 9801 ft 279 kts 218°
2026-05-04 10:04 50.73066 5.89762 10481 ft 280 kts 220°
2026-05-04 10:05 50.71557 5.87797 11168 ft 282 kts 220°
2026-05-04 10:05 50.70044 5.85805 11859 ft 284 kts 220°
2026-05-04 10:05 50.68537 5.83821 12527 ft 287 kts 220°
2026-05-04 10:05 50.66993 5.81802 13199 ft 290 kts 219°
2026-05-04 10:06 50.65422 5.79766 13860 ft 293 kts 219°
2026-05-04 10:06 50.63832 5.77727 14455 ft 296 kts 219°
2026-05-04 10:06 50.62223 5.75678 15051 ft 298 kts 218°
2026-05-04 10:08 50.49200 5.72824 16874 ft 370 kts 174°
2026-05-04 10:08 50.46667 5.73316 17325 ft 374 kts 174°
2026-05-04 10:08 50.44069 5.73816 17869 ft 377 kts 174°
2026-05-04 10:08 50.41451 5.74315 18404 ft 379 kts 174°
2026-05-04 10:09 50.38828 5.74816 18859 ft 381 kts 174°
2026-05-04 10:09 50.36177 5.75325 19342 ft 383 kts 174°
2026-05-04 10:09 50.33551 5.75826 19807 ft 385 kts 174°
2026-05-04 10:09 50.30873 5.76334 20277 ft 387 kts 175°
2026-05-04 10:10 50.28192 5.76819 20733 ft 388 kts 177°
2026-05-04 10:10 50.25490 5.76720 21198 ft 387 kts 189°
2026-05-04 10:10 50.22872 5.75768 21678 ft 387 kts 200°
2026-05-04 10:10 50.20395 5.74207 22148 ft 389 kts 203°
2026-05-04 10:11 50.17891 5.72580 22612 ft 391 kts 202°
2026-05-04 10:11 50.15368 5.70948 23052 ft 393 kts 202°
2026-05-04 10:11 50.12839 5.69319 23496 ft 395 kts 202°
2026-05-04 10:11 50.10289 5.67680 23878 ft 397 kts 202°
2026-05-04 10:12 50.07732 5.66036 24252 ft 398 kts 203°
2026-05-04 10:12 50.05163 5.64381 24624 ft 399 kts 203°
2026-05-04 10:12 50.02592 5.62724 25011 ft 400 kts 203°
2026-05-04 10:12 50.00016 5.61062 25391 ft 401 kts 203°
2026-05-04 10:13 49.97466 5.59421 25758 ft 402 kts 203°
2026-05-04 10:13 49.94874 5.57759 26111 ft 404 kts 203°
2026-05-04 10:13 49.92273 5.56091 26469 ft 405 kts 203°
2026-05-04 10:13 49.89663 5.54421 26828 ft 406 kts 203°
2026-05-04 10:14 49.87041 5.52745 27214 ft 408 kts 203°
2026-05-04 10:14 49.84407 5.51062 27585 ft 409 kts 203°
2026-05-04 10:16 49.65836 5.39008 30087 ft 413 kts 212°
2026-05-04 10:16 49.63617 5.36196 30450 ft 414 kts 226°
2026-05-04 10:16 49.61952 5.32572 30831 ft 417 kts 240°
2026-05-04 10:16 49.60928 5.28364 31144 ft 422 kts 250°
2026-05-04 10:17 49.60145 5.23991 31468 ft 422 kts 250°
2026-05-04 10:17 49.59377 5.19683 31823 ft 420 kts 250°
2026-05-04 10:19 49.53941 4.89778 34443 ft 408 kts 250°
2026-05-04 10:19 49.53179 4.85638 34706 ft 407 kts 250°
2026-05-04 10:19 49.52406 4.81445 34919 ft 408 kts 250°
2026-05-04 10:19 49.51629 4.77239 35003 ft 407 kts 250°
2026-05-04 10:20 49.50083 4.68876 35014 ft 405 kts 250°
2026-05-04 10:20 49.48537 4.60539 35011 ft 405 kts 250°
2026-05-04 10:21 49.46984 4.52217 35011 ft 405 kts 250°
2026-05-04 10:21 49.45423 4.43925 35019 ft 405 kts 250°
2026-05-04 10:22 49.43063 4.31438 34992 ft 406 kts 249°
2026-05-04 10:23 49.41489 4.23152 34993 ft 406 kts 249°
2026-05-04 10:25 49.33768 3.90962 34985 ft 398 kts 233°
2026-05-04 10:25 49.30690 3.83894 34989 ft 399 kts 233°
2026-05-04 10:26 49.27623 3.76852 34982 ft 399 kts 233°
2026-05-04 10:26 49.25058 3.70967 34984 ft 399 kts 233°
2026-05-04 10:27 49.21968 3.63895 34974 ft 400 kts 233°
2026-05-04 10:27 49.18868 3.56807 34980 ft 401 kts 233°
2026-05-04 10:28 49.15767 3.49754 34984 ft 399 kts 233°
2026-05-04 10:28 49.12670 3.42753 34976 ft 400 kts 233°
2026-05-04 10:29 49.09552 3.35693 34973 ft 401 kts 233°
2026-05-04 10:29 49.06428 3.28636 34975 ft 401 kts 233°
2026-05-04 10:30 49.03307 3.21622 34981 ft 402 kts 233°
2026-05-04 10:30 49.00166 3.14575 34985 ft 402 kts 233°
2026-05-04 10:31 48.97013 3.07507 34987 ft 402 kts 233°
2026-05-04 10:32 48.85952 2.82902 34977 ft 403 kts 232°
2026-05-04 10:33 48.82768 2.75862 34985 ft 404 kts 232°
2026-05-04 10:33 48.79605 2.68873 34988 ft 404 kts 232°
2026-05-04 10:34 48.76419 2.61838 35000 ft 405 kts 232°
2026-05-04 10:34 48.73233 2.54825 35009 ft 406 kts 232°
2026-05-04 10:35 48.70017 2.47791 34993 ft 406 kts 232°
2026-05-04 10:35 48.66792 2.40760 34990 ft 406 kts 232°
2026-05-04 10:36 48.63579 2.33771 34993 ft 407 kts 232°
2026-05-04 10:36 48.60330 2.26745 34991 ft 407 kts 229°
2026-05-04 10:37 48.56204 2.21087 34985 ft 399 kts 209°
2026-05-04 10:37 48.51021 2.18242 34970 ft 398 kts 189°
2026-05-04 10:39 48.31701 2.14954 34962 ft 401 kts 187°
2026-05-04 10:40 48.26160 2.14028 34987 ft 401 kts 187°
2026-05-04 10:40 48.20644 2.13108 34985 ft 401 kts 187°
2026-05-04 10:41 48.15085 2.12172 34980 ft 402 kts 187°
2026-05-04 10:41 48.09526 2.11245 34984 ft 402 kts 187°
2026-05-04 10:42 48.03952 2.10329 34990 ft 402 kts 187°
2026-05-04 10:42 47.98390 2.09416 34993 ft 403 kts 187°
2026-05-04 10:43 47.92813 2.08489 35000 ft 403 kts 187°
2026-05-04 10:45 47.70543 2.04819 34976 ft 403 kts 187°
2026-05-04 10:45 47.65013 2.03901 34973 ft 402 kts 189°
2026-05-04 10:46 47.59688 2.01530 34972 ft 400 kts 201°
2026-05-04 10:46 47.54497 1.98503 34954 ft 401 kts 201°
2026-05-04 10:47 47.49298 1.95492 34957 ft 401 kts 201°
2026-05-04 10:47 47.44094 1.92487 34960 ft 402 kts 201°
2026-05-04 10:49 47.23268 1.80524 34972 ft 402 kts 201°
2026-05-04 10:50 47.18045 1.77543 34972 ft 402 kts 201°
2026-05-04 10:52 46.97198 1.65828 34980 ft 401 kts 201°
2026-05-04 10:52 46.91986 1.62921 34992 ft 401 kts 200°
2026-05-04 10:54 46.70989 1.51227 34946 ft 405 kts 200°
2026-05-04 10:56 46.49892 1.39594 34942 ft 406 kts 200°
2026-05-04 10:57 46.44606 1.36691 34945 ft 406 kts 200°
2026-05-04 10:57 46.39311 1.33795 34949 ft 406 kts 200°
2026-05-04 10:58 46.34019 1.30899 34949 ft 407 kts 201°
2026-05-04 10:58 46.28746 1.28017 34952 ft 407 kts 201°
2026-05-04 10:59 46.23442 1.25132 34959 ft 407 kts 201°
2026-05-04 10:59 46.18127 1.22247 34960 ft 407 kts 200°
2026-05-04 11:00 46.12862 1.19397 34955 ft 407 kts 201°
2026-05-04 11:02 45.91602 1.07921 34971 ft 408 kts 201°
2026-05-04 11:05 45.57139 0.73357 34956 ft 408 kts 219°
2026-05-04 11:06 45.52766 0.68170 34954 ft 408 kts 219°
2026-05-04 11:06 45.48398 0.62992 34950 ft 408 kts 219°
2026-05-04 11:10 45.17819 0.27092 34957 ft 407 kts 219°
2026-05-04 11:12 45.00359 0.06826 34961 ft 406 kts 218°
2026-05-04 11:12 44.95991 0.01778 34955 ft 406 kts 219°
2026-05-04 11:13 44.91623 -0.03255 34977 ft 405 kts 219°
2026-05-04 11:13 44.87256 -0.08277 34969 ft 405 kts 219°
2026-05-04 11:14 44.82881 -0.13304 34967 ft 405 kts 219°
2026-05-04 11:16 44.65402 -0.33259 34952 ft 405 kts 218°
2026-05-04 11:16 44.60918 -0.38056 34945 ft 405 kts 216°
2026-05-04 11:17 44.56322 -0.42626 34959 ft 405 kts 215°
2026-05-04 11:19 44.38054 -0.60973 34958 ft 403 kts 216°
2026-05-04 11:19 44.33498 -0.65546 34968 ft 403 kts 216°
2026-05-04 11:20 44.28946 -0.70102 34970 ft 402 kts 216°
2026-05-04 11:20 44.25162 -0.73884 34969 ft 402 kts 216°
2026-05-04 11:22 44.06988 -0.91972 34988 ft 402 kts 216°
2026-05-04 11:23 44.02427 -0.96495 34977 ft 402 kts 216°
2026-05-04 11:25 43.86568 -1.12119 34984 ft 399 kts 216°
2026-05-04 11:25 43.82036 -1.16565 34972 ft 399 kts 216°
2026-05-04 11:27 43.61616 -1.36516 34985 ft 400 kts 215°
2026-05-04 11:28 43.57106 -1.40896 35034 ft 399 kts 215°
2026-05-04 11:28 43.52573 -1.45299 35035 ft 398 kts 215°
2026-05-04 11:29 43.47992 -1.49595 35043 ft 398 kts 209°
2026-05-04 11:29 43.42759 -1.52074 35030 ft 401 kts 193°
2026-05-04 11:33 43.04360 -1.62156 35010 ft 402 kts 193°
2026-05-04 11:33 42.98865 -1.63592 34990 ft 402 kts 194°
2026-05-04 11:34 42.93372 -1.65019 34992 ft 402 kts 194°
2026-05-04 11:34 42.87870 -1.66448 34970 ft 402 kts 194°
2026-05-04 11:35 42.82402 -1.67868 34969 ft 402 kts 194°
2026-05-04 11:35 42.76901 -1.69284 34972 ft 402 kts 193°
2026-05-04 11:36 42.71572 -1.71392 34974 ft 397 kts 207°
2026-05-04 11:36 42.66652 -1.74719 34973 ft 397 kts 207°
2026-05-04 11:37 42.61694 -1.78055 34976 ft 397 kts 207°
2026-05-04 11:37 42.56734 -1.81381 34958 ft 397 kts 208°
2026-05-04 11:38 42.51777 -1.84706 34965 ft 397 kts 207°
2026-05-04 11:38 42.46813 -1.88031 34969 ft 397 kts 207°
2026-05-04 11:39 42.41895 -1.91322 34993 ft 397 kts 207°
2026-05-04 11:41 42.24432 -2.02918 34958 ft 401 kts 208°
2026-05-04 11:41 42.19418 -2.06234 34968 ft 402 kts 207°
2026-05-04 11:42 42.14430 -2.09532 34944 ft 401 kts 208°
2026-05-04 11:42 42.09418 -2.12851 34950 ft 401 kts 208°
2026-05-04 11:43 42.04394 -2.16161 34953 ft 401 kts 208°
2026-05-04 11:43 41.99368 -2.19464 34958 ft 401 kts 208°
2026-05-04 11:44 41.94344 -2.22764 34950 ft 401 kts 208°
2026-05-04 11:44 41.89368 -2.26019 34971 ft 400 kts 208°
2026-05-04 11:45 41.84374 -2.29287 35014 ft 399 kts 208°
2026-05-04 11:45 41.79373 -2.32557 34978 ft 400 kts 208°
2026-05-04 11:46 41.74371 -2.35820 34950 ft 400 kts 208°
2026-05-04 11:46 41.69386 -2.39055 34955 ft 400 kts 208°
2026-05-04 11:47 41.64366 -2.42316 34959 ft 400 kts 208°
2026-05-04 11:47 41.59355 -2.45569 34966 ft 400 kts 208°
2026-05-04 11:48 41.54343 -2.48804 34964 ft 400 kts 208°
2026-05-04 11:48 41.49330 -2.52047 34952 ft 399 kts 208°
2026-05-04 11:49 41.44355 -2.55259 34965 ft 399 kts 208°
2026-05-04 11:49 41.39357 -2.58475 34968 ft 398 kts 208°
2026-05-04 11:50 41.34357 -2.61687 34976 ft 398 kts 208°
2026-05-04 11:50 41.29647 -2.65475 34951 ft 395 kts 217°
2026-05-04 11:51 41.25160 -2.69614 34968 ft 395 kts 217°
2026-05-04 11:51 41.20630 -2.73776 34957 ft 396 kts 217°
2026-05-04 11:52 41.16088 -2.77951 34959 ft 398 kts 217°
2026-05-04 11:52 41.11530 -2.82140 34963 ft 398 kts 217°
2026-05-04 11:53 41.06965 -2.86313 34950 ft 398 kts 217°
2026-05-04 11:53 41.05435 -2.87704 34955 ft 398 kts 217°
2026-05-04 11:55 40.89386 -3.02324 34973 ft 398 kts 217°
2026-05-04 11:56 40.84822 -3.06471 34979 ft 398 kts 217°
2026-05-04 11:56 40.80278 -3.10591 34966 ft 399 kts 217°
2026-05-04 11:57 40.75694 -3.14736 34962 ft 400 kts 217°
2026-05-04 11:57 40.71092 -3.18892 34967 ft 401 kts 217°
2026-05-04 11:58 40.66485 -3.23043 34975 ft 401 kts 217°
2026-05-04 11:58 40.61875 -3.27183 34982 ft 401 kts 217°
2026-05-04 11:59 40.57261 -3.31332 34991 ft 402 kts 217°
2026-05-04 11:59 40.52676 -3.35446 34996 ft 402 kts 217°
2026-05-04 12:00 40.48053 -3.39582 34994 ft 402 kts 217°
2026-05-04 12:00 40.43427 -3.43725 35018 ft 402 kts 217°
2026-05-04 12:01 40.38797 -3.47858 34981 ft 402 kts 218°
2026-05-04 12:02 40.22579 -3.62261 34993 ft 403 kts 218°
2026-05-04 12:03 40.17940 -3.66366 34974 ft 403 kts 218°
2026-05-04 12:03 40.13294 -3.70477 34994 ft 402 kts 218°
2026-05-04 12:04 40.08698 -3.74542 34993 ft 401 kts 218°
2026-05-04 12:04 40.04064 -3.78623 34987 ft 401 kts 218°
2026-05-04 12:05 39.99463 -3.82671 34989 ft 401 kts 218°
2026-05-04 12:05 39.94828 -3.86747 34945 ft 401 kts 218°
2026-05-04 12:06 39.90203 -3.90808 34973 ft 400 kts 218°
2026-05-04 12:06 39.85604 -3.94820 34981 ft 399 kts 218°
2026-05-04 12:07 39.80987 -3.98851 34984 ft 399 kts 218°
2026-05-04 12:07 39.76376 -4.02881 34984 ft 399 kts 218°
2026-05-04 12:08 39.71796 -4.06874 34965 ft 398 kts 219°
2026-05-04 12:08 39.67198 -4.10876 34985 ft 397 kts 219°
2026-05-04 12:09 39.62613 -4.14857 34993 ft 396 kts 219°
2026-05-04 12:09 39.58034 -4.18819 34995 ft 395 kts 218°
2026-05-04 12:10 39.53486 -4.22750 34994 ft 395 kts 219°
2026-05-04 12:10 39.48918 -4.26702 34958 ft 394 kts 219°
2026-05-04 12:11 39.44349 -4.30653 34983 ft 394 kts 219°
2026-05-04 12:11 39.39788 -4.34577 34993 ft 393 kts 219°
2026-05-04 12:12 39.35259 -4.38465 34995 ft 393 kts 219°
2026-05-04 12:12 39.30696 -4.42381 35008 ft 393 kts 218°
2026-05-04 12:14 39.10095 -4.52237 34991 ft 411 kts 197°
2026-05-04 12:15 39.04434 -4.53421 35002 ft 412 kts 197°
2026-05-04 12:15 38.98781 -4.54604 34981 ft 411 kts 197°
2026-05-04 12:16 38.93167 -4.55787 34994 ft 411 kts 197°
2026-05-04 12:16 38.87518 -4.56962 34997 ft 411 kts 197°
2026-05-04 12:17 38.81869 -4.58137 35011 ft 411 kts 197°
2026-05-04 12:17 38.77170 -4.59119 34990 ft 411 kts 197°
2026-05-04 12:18 38.71510 -4.60295 34999 ft 411 kts 197°
2026-05-04 12:18 38.65855 -4.61466 35001 ft 411 kts 197°
2026-05-04 12:19 38.60237 -4.62628 35003 ft 411 kts 197°
2026-05-04 12:19 38.54593 -4.63807 34967 ft 411 kts 197°
2026-05-04 12:20 38.48938 -4.64974 34984 ft 411 kts 197°
2026-05-04 12:20 38.43333 -4.66123 34996 ft 410 kts 197°
2026-05-04 12:21 38.37696 -4.67281 35001 ft 410 kts 197°
2026-05-04 12:21 38.32081 -4.68431 34999 ft 410 kts 197°
2026-05-04 12:22 38.26445 -4.69590 35001 ft 410 kts 197°
2026-05-04 12:22 38.20812 -4.70749 35003 ft 410 kts 197°
2026-05-04 12:23 38.15206 -4.71898 35002 ft 410 kts 197°
2026-05-04 12:23 38.09566 -4.73053 34648 ft 412 kts 197°
2026-05-04 12:24 38.06699 -4.73643 33492 ft 422 kts 196°
2026-05-04 12:24 38.03767 -4.74246 32393 ft 430 kts 196°
2026-05-04 12:24 38.00797 -4.74850 31316 ft 436 kts 196°
2026-05-04 12:24 37.97791 -4.75457 30470 ft 436 kts 196°
2026-05-04 12:25 37.94785 -4.76065 29598 ft 437 kts 196°
2026-05-04 12:25 37.91842 -4.76654 29119 ft 429 kts 196°
2026-05-04 12:25 37.88909 -4.77241 28517 ft 424 kts 196°
2026-05-04 12:25 37.86012 -4.77822 27943 ft 418 kts 196°
2026-05-04 12:26 37.83153 -4.78402 27372 ft 411 kts 196°
2026-05-04 12:26 37.80337 -4.78975 26817 ft 406 kts 196°
2026-05-04 12:26 37.77529 -4.79380 26249 ft 408 kts 189°
2026-05-04 12:26 37.74709 -4.79193 25675 ft 414 kts 179°
2026-05-04 12:27 37.71874 -4.78373 25084 ft 419 kts 172°
2026-05-04 12:27 37.69079 -4.77374 24497 ft 416 kts 172°
2026-05-04 12:27 37.66299 -4.76387 23928 ft 413 kts 172°
2026-05-04 12:27 37.63543 -4.75418 23330 ft 410 kts 172°
2026-05-04 12:28 37.60811 -4.74464 22766 ft 404 kts 172°
2026-05-04 12:28 37.58116 -4.73525 22287 ft 397 kts 172°
2026-05-04 12:28 37.55474 -4.72607 21806 ft 391 kts 172°
2026-05-04 12:28 37.52907 -4.71718 21357 ft 385 kts 172°
2026-05-04 12:29 37.50337 -4.70827 20916 ft 379 kts 172°
2026-05-04 12:29 37.47811 -4.69954 20573 ft 371 kts 172°
2026-05-04 12:29 37.45363 -4.69101 20446 ft 358 kts 172°
2026-05-04 12:29 37.43033 -4.68285 20322 ft 345 kts 173°
2026-05-04 12:30 37.40747 -4.67485 20072 ft 337 kts 173°
2026-05-04 12:30 37.38512 -4.66626 19829 ft 337 kts 166°
2026-05-04 12:30 37.36393 -4.65287 19552 ft 343 kts 157°
2026-05-04 12:30 37.34352 -4.63786 19313 ft 342 kts 157°
2026-05-04 12:31 37.34045 -4.63559 19282 ft 342 kts 157°
2026-05-04 12:31 37.32017 -4.62068 19135 ft 342 kts 157°
2026-05-04 12:31 37.29966 -4.60562 18873 ft 341 kts 157°
2026-05-04 12:32 37.27887 -4.59181 18591 ft 333 kts 166°
2026-05-04 12:32 37.23510 -4.58140 18022 ft 314 kts 187°
2026-05-04 12:32 37.21356 -4.58136 17768 ft 313 kts 187°
2026-05-04 12:33 37.19172 -4.58124 17500 ft 312 kts 187°
2026-05-04 12:33 37.16995 -4.58109 17246 ft 311 kts 187°
2026-05-04 12:33 37.14838 -4.58092 16989 ft 310 kts 187°
2026-05-04 12:33 37.12685 -4.58075 16729 ft 309 kts 186°
2026-05-04 12:34 37.10532 -4.58057 16474 ft 308 kts 186°
2026-05-04 12:34 37.08419 -4.58038 16222 ft 307 kts 186°
2026-05-04 12:34 37.06289 -4.58017 15966 ft 305 kts 186°
2026-05-04 12:34 37.04164 -4.57997 15646 ft 304 kts 186°
2026-05-04 12:35 37.02048 -4.57981 15340 ft 303 kts 186°
2026-05-04 12:35 36.99943 -4.57965 15040 ft 302 kts 186°
2026-05-04 12:35 36.99261 -4.57960 14943 ft 301 kts 186°
2026-05-04 12:36 36.88588 -4.52013 12488 ft 330 kts 140°
2026-05-04 12:37 36.86980 -4.50016 12040 ft 330 kts 140°
2026-05-04 12:37 36.85347 -4.47995 11591 ft 330 kts 141°
2026-05-04 12:37 36.83706 -4.45972 11123 ft 330 kts 141°
2026-05-04 12:37 36.82069 -4.43956 10692 ft 330 kts 140°
2026-05-04 12:38 36.80431 -4.41938 10254 ft 330 kts 140°
2026-05-04 12:38 36.78797 -4.39928 9824 ft 330 kts 140°
2026-05-04 12:38 36.77175 -4.37937 9366 ft 330 kts 140°
2026-05-04 12:38 36.75539 -4.35929 8886 ft 328 kts 139°
2026-05-04 12:39 36.73889 -4.33977 8423 ft 325 kts 145°
2026-05-04 12:39 36.71971 -4.32547 7978 ft 319 kts 158°
2026-05-04 12:39 36.69977 -4.31324 7532 ft 318 kts 157°
2026-05-04 12:39 36.67995 -4.30109 7091 ft 317 kts 156°
2026-05-04 12:40 36.66041 -4.28908 6664 ft 315 kts 156°
2026-05-04 12:40 36.64098 -4.27710 6205 ft 304 kts 156°
2026-05-04 12:40 36.62275 -4.26524 5749 ft 290 kts 150°
2026-05-04 12:40 36.60785 -4.24908 5295 ft 279 kts 131°
2026-05-04 12:41 36.59561 -4.23089 4855 ft 268 kts 130°
2026-05-04 12:41 36.58391 -4.21357 4419 ft 258 kts 130°
2026-05-04 12:41 36.57149 -4.19840 3969 ft 245 kts 150°
2026-05-04 12:41 36.55576 -4.19261 3526 ft 231 kts 184°
2026-05-04 12:42 36.54112 -4.19792 3082 ft 213 kts 220°
2026-05-04 12:42 36.53246 -4.21158 2622 ft 198 kts 255°
2026-05-04 12:42 36.53055 -4.22800 2188 ft 193 kts 268°
2026-05-04 12:42 36.53134 -4.24432 2006 ft 186 kts 278°
2026-05-04 12:43 36.53378 -4.26004 2004 ft 184 kts 280°
2026-05-04 12:43 36.53643 -4.27580 2002 ft 188 kts 281°
2026-05-04 12:43 36.53908 -4.29200 2015 ft 192 kts 280°
2026-05-04 12:43 36.54182 -4.30816 2004 ft 188 kts 284°
2026-05-04 12:44 36.54800 -4.32218 1999 ft 191 kts 308°
2026-05-04 12:44 36.55692 -4.33457 2003 ft 191 kts 309°
2026-05-04 12:44 36.56585 -4.34693 1987 ft 193 kts 309°
2026-05-04 12:44 36.57480 -4.35937 1986 ft 192 kts 308°
2026-05-04 12:45 36.58362 -4.37164 1984 ft 189 kts 308°
2026-05-04 12:45 36.59235 -4.38382 1983 ft 188 kts 308°
2026-05-04 12:45 36.60113 -4.39606 1862 ft 189 kts 308°
2026-05-04 12:45 36.60978 -4.40812 1661 ft 186 kts 309°
2026-05-04 12:46 36.61804 -4.41960 1447 ft 167 kts 306°
2026-05-04 12:46 36.62533 -4.42974 1222 ft 148 kts 305°
2026-05-04 12:46 36.63211 -4.43924 1020 ft 144 kts 304°
2026-05-04 12:46 36.63844 -4.44808 829 ft 136 kts 305°
2026-05-04 12:47 36.64464 -4.45687 646 ft 136 kts 306°
2026-05-04 12:47 36.65091 -4.46570 529 ft 135 kts 308°
2026-05-04 12:47 36.65731 -4.47430 318 ft 135 kts 310°
2026-05-04 12:47 36.66348 -4.48317 118 ft 136 kts 311°
2026-05-04 12:48 36.66963 -4.49180 47 ft 123 kts 311°
2026-05-04 12:48 36.67419 -4.49812 50 ft 71 kts 311°
2026-05-04 12:48 36.67608 -4.50070 53 ft 21 kts 313°
2026-05-04 12:48 36.67717 -4.50174 52 ft 20 kts 332°
2026-05-04 12:49 36.67820 -4.50228 52 ft 13 kts 341°
2026-05-04 12:49 36.67865 -4.50145 43 ft 19 kts 119°
2026-05-04 12:49 36.67777 -4.50016 44 ft 19 kts 131°
2026-05-04 12:49 36.67720 -4.49926 43 ft 11 kts 104°
2026-05-04 12:50 36.67742 -4.49834 42 ft 12 kts 107°
2026-05-04 12:50 36.67690 -4.49754 42 ft 12 kts 131°
2026-05-04 12:50 36.67698 -4.49687 42 ft 9 kts 43°
2026-05-04 12:50 36.67742 -4.49637 42 ft 8 kts 41°
2026-05-04 12:51 36.67760 -4.49618 42 ft 0 kts 41°